RH
52 53 49 47 43 43 44 42 48 44 43 48 41 39 42 37 36 38 41 39 38 42 47 47 44 41 42 44 39 35 37 46 50 48 53 46 38 40 33 28 28 29 31 32 35 36 28 26 25 19 16 14 13 12 11 8 6 6 9 11 17 40 68 81 80 87 88 89 82 57 41 20 8 13 10 10 12 11 13 14 14 16 19 25 36 57 77 86 89 86 80 73 71 84 87 84 85
54 52 48 44 40 44 42 37 48 47 45 50 39 37 40 35 34 34 36 41 42 42 44 42 40 41 43 45 35 31 39 42 42 42 42 35 34 35 29 28 28 28 29 29 33 32 24 23 20 16 14 13 13 12 11 9 6 7 5 7 10 23 52 67 76 87 84 74 50 22 12 9 9 9 9 10 10 10 12 13 12 15 11 23 59 83 90 88 89 90 87 87 87 89 85 85 91
54 52 47 42 41 42 38 37 48 48 46 45 39 40 39 35 32 35 42 46 40 37 40 38 37 36 35 37 32 34 41 39 39 37 33 37 43 38 30 28 27 27 26 26 28 25 21 19 16 13 13 12 12 11 11 11 7 7 5 7 4 13 38 49 76 85 58 38 17 9 8 8 10 8 11 9 9 11 11 13 12 13 15 47 83 88 89 87 88 90 88 89 81 70 60 59 71
50 49 45 42 40 40 39 42 45 45 43 37 39 42 35 33 38 46 47 39 34 35 37 34 35 33 32 39 37 36 37 36 40 40 37 42 49 40 30 27 27 27 25 25 25 23 20 15 14 12 13 12 12 12 12 11 9 8 4 7 3 13 31 31 58 60 24 13 7 8 8 7 9 8 9 8 10 11 12 12 13 13 18 52 72 71 80 82 78 73 66 58 42 32 35 40 45
45 43 41 40 40 37 37 42 42 42 42 35 38 38 31 37 48 49 40 32 31 33 34 33 38 36 36 44 40 37 38 35 34 38 43 43 42 34 27 27 27 27 25 24 25 23 17 13 13 11 12 11 12 13 12 13 10 8 5 5 4 11 24 16 22 22 6 7 6 7 8 8 8 7 8 9 11 11 13 12 12 13 14 29 37 43 52 51 44 35 26 20 13 12 20 26 23
41 39 37 36 36 34 36 42 42 39 39 35 35 34 32 42 49 43 34 33 33 34 38 38 42 36 32 39 38 37 39 37 33 34 41 40 33 28 27 28 27 27 27 24 25 22 16 13 12 10 11 11 12 13 13 14 11 9 6 5 5 6 10 7 5 6 5 6 6 8 7 7 7 7 8 9 12 11 12 12 13 13 11 14 15 19 22 20 16 12 11 9 10 9 10 10 9
35 34 35 35 33 33 41 43 37 34 35 33 30 30 36 45 43 39 40 41 40 40 44 44 43 39 33 34 35 38 40 40 37 34 36 36 31 27 27 28 28 28 29 25 24 22 17 16 14 12 11 11 12 14 14 15 13 10 7 5 5 4 4 5 5 4 5 6 6 7 6 7 7 6 8 9 11 11 11 11 12 12 12 11 11 11 10 10 9 10 9 8 9 8 9 8 8
30 31 30 33 34 32 38 37 32 33 34 32 27 30 40 45 39 41 44 42 45 43 44 47 45 45 42 35 33 34 36 38 40 37 31 31 29 27 28 28 30 32 30 25 24 24 20 19 18 15 12 12 12 14 15 15 14 11 8 6 4 4 4 4 5 5 5 6 7 7 7 6 6 6 8 9 10 10 11 11 11 11 11 10 10 9 9 9 8 8 7 8 8 7 8 7 8
28 31 26 29 35 33 34 29 29 33 34 33 32 35 40 40 37 41 43 38 41 39 38 43 45 47 46 39 34 32 30 32 35 34 28 29 29 27 29 29 32 34 31 27 27 28 25 23 21 19 16 13 13 14 16 16 16 12 8 6 5 4 5 5 5 6 6 7 7 7 7 6 6 6 7 8 9 10 10 10 10 10 10 9 8 8 8 8 8 8 8 8 6 7 7 7 7
25 27 25 28 33 35 34 26 27 32 31 33 36 38 39 38 35 38 39 36 36 34 32 36 42 43 42 40 37 35 31 31 29 27 27 28 29 27 29 30 32 31 30 30 29 29 28 27 25 24 21 16 15 14 16 17 16 14 10 7 6 6 6 6 6 7 8 7 7 6 6 6 5 5 7 8 8 10 10 10 10 9 8 8 7 8 8 8 8 7 7 7 7 7 6 7 7
23 24 24 31 35 35 33 27 29 32 30 30 36 39 40 37 35 37 35 35 34 32 31 31 37 37 36 36 36 38 34 32 28 25 28 29 29 28 29 31 33 32 32 33 31 30 31 32 32 31 28 24 19 15 15 17 17 16 13 10 8 8 8 8 9 9 8 8 7 6 6 5 5 6 7 8 8 10 10 9 8 8 8 7 8 8 7 7 7 6 7 7 7 7 7 9 8
24 25 25 32 33 29 28 27 29 31 31 31 36 39 39 36 37 41 37 35 33 31 33 30 33 34 35 34 34 38 35 33 29 26 30 29 29 28 29 30 33 35 35 35 34 34 35 37 38 38 37 35 31 23 17 15 17 17 16 14 11 10 10 10 10 9 9 8 7 6 6 5 5 6 7 8 9 9 9 8 7 7 7 7 8 7 7 6 6 6 7 7 8 9 8 8 9
23 22 24 28 24 24 24 24 29 31 31 29 33 38 35 35 38 39 37 35 33 34 35 33 32 31 32 31 33 38 35 34 31 29 30 29 29 28 30 31 33 37 36 37 37 38 39 41 42 43 43 43 42 35 26 17 15 17 17 16 14 13 12 11 11 10 9 7 7 6 5 6 5 6 7 8 8 9 8 7 6 7 7 8 7 7 7 6 7 7 7 8 8 8 8 9 9
20 19 22 26 22 23 22 20 28 33 29 25 30 35 31 32 34 33 35 35 35 34 34 35 33 30 30 28 32 37 33 33 32 30 28 28 30 29 30 32 35 37 37 38 39 40 41 43 44 45 46 46 46 42 37 26 16 15 16 17 16 14 13 13 11 10 9 7 7 6 5 5 6 7 7 8 9 8 7 6 7 7 7 7 7 7 7 6 6 7 7 7 7 7 7 7 7
17 20 20 22 22 21 21 19 25 30 25 24 32 34 29 29 30 30 31 32 33 31 33 37 33 30 29 25 29 31 31 33 33 31 29 29 31 30 30 32 35 37 38 39 40 42 42 44 45 46 47 48 47 45 43 35 23 17 15 15 16 15 14 14 12 11 9 8 7 6 6 5 6 7 8 9 8 7 6 6 7 7 7 7 7 6 6 6 6 6 6 6 6 7 6 6 7
16 23 25 25 24 21 24 23 22 27 24 27 33 32 30 28 28 29 30 32 35 32 33 35 33 30 25 23 27 26 29 33 33 32 29 30 32 31 31 32 35 36 38 39 40 42 43 45 45 46 47 47 48 48 47 44 34 24 17 14 14 15 15 14 13 12 10 8 7 6 6 6 6 7 8 9 8 7 6 6 7 7 7 7 7 6 6 6 6 6 6 6 6 6 6 6 6
12 23 30 29 24 20 24 21 21 26 26 33 33 31 32 30 30 33 33 35 37 35 33 31 31 31 26 24 27 26 29 32 33 33 30 30 32 31 32 32 34 35 37 39 41 42 43 45 45 46 46 46 46 47 49 48 43 36 27 17 13 14 15 16 14 12 11 8 7 6 6 6 7 7 8 9 8 7 7 7 7 7 7 7 7 6 6 6 6 6 6 6 6 6 7 6 6
15 24 28 27 24 21 20 18 19 22 27 38 35 30 31 29 33 34 32 33 34 35 34 33 32 29 27 26 27 27 28 31 32 31 30 31 31 32 33 33 34 34 35 37 40 42 43 43 44 44 45 45 45 45 47 48 48 44 38 27 17 14 15 16 15 13 11 9 7 6 6 6 6 7 8 9 9 8 8 7 7 7 7 6 6 6 6 6 6 6 6 6 6 6 6 7 7
20 27 25 25 26 21 18 19 21 20 26 35 32 28 26 27 31 31 31 30 30 34 32 32 33 30 28 27 27 28 28 29 30 30 30 30 32 33 34 34 35 36 37 37 38 41 41 42 42 42 42 43 43 43 44 46 48 47 45 37 25 17 15 16 16 15 12 9 7 5 5 6 6 7 8 10 10 9 8 7 7 7 6 6 6 6 6 6 6 6 6 7 6 7 7 7 7
21 22 23 24 21 16 16 20 23 22 25 28 28 27 24 24 27 28 30 29 28 33 31 30 32 31 30 28 27 28 28 29 29 29 29 30 32 33 33 33 34 36 38 40 40 40 39 39 39 39 39 40 41 41 42 43 45 48 47 44 34 22 16 16 16 16 13 10 7 5 5 5 6 7 9 10 9 9 8 7 7 6 7 6 6 6 6 6 6 6 6 6 6 7 7 7 8
21 20 25 23 17 16 18 22 25 23 25 25 24 27 26 23 25 26 28 33 32 29 26 27 29 29 30 29 27 27 28 29 30 30 30 31 31 31 32 31 32 32 35 39 42 41 38 38 38 37 37 37 39 40 41 42 44 46 48 46 40 29 19 17 17 16 14 11 8 6 5 5 6 7 8 9 9 8 8 7 7 7 6 5 6 6 6 6 6 6 6 6 7 8 8 9 9
23 23 24 22 19 21 21 25 28 24 24 25 24 27 27 23 25 25 27 35 33 26 24 26 26 26 27 27 26 26 26 28 30 31 30 30 29 30 31 31 31 31 33 36 39 40 38 38 36 35 36 37 38 39 40 41 43 45 47 47 43 34 24 18 17 17 14 11 8 6 5 5 6 7 8 8 9 8 8 8 7 6 6 6 6 6 6 6 6 6 7 7 8 9 10 10 10
27 25 19 20 22 23 24 27 30 26 24 24 24 26 24 22 26 26 27 31 28 24 25 27 27 27 26 25 25 24 25 26 28 30 30 29 28 28 29 30 32 32 33 35 37 37 37 36 35 35 35 36 38 39 40 40 41 43 45 47 45 37 28 20 18 17 15 11 8 6 5 5 6 7 8 8 8 8 8 7 7 7 7 6 6 6 6 6 6 7 8 10 10 11 12 12 12
30 30 20 20 22 23 25 28 30 29 26 24 26 28 25 25 29 28 26 27 25 23 22 23 27 28 28 26 26 26 26 25 27 29 29 30 28 28 28 29 30 32 33 34 36 37 36 35 34 35 35 35 37 38 39 39 40 42 45 47 45 39 31 22 18 17 15 11 8 6 5 5 6 7 8 8 8 8 8 7 7 7 6 6 7 6 6 7 8 9 10 12 12 14 15 14 16
35 34 23 19 21 23 26 28 29 29 27 26 27 27 26 26 26 25 25 24 24 24 23 23 24 27 29 28 26 27 28 27 27 28 30 31 30 30 31 31 32 33 33 33 36 37 37 35 34 35 35 35 36 37 38 39 40 41 45 48 45 42 34 24 19 18 15 10 7 6 5 5 6 7 8 8 8 8 8 8 7 7 7 7 7 6 8 9 10 11 12 13 16 19 20 21 24
39 33 25 20 21 23 25 25 25 26 25 25 26 25 24 23 23 23 23 22 22 22 24 25 24 25 28 29 27 26 26 26 26 27 29 31 31 31 31 33 34 34 35 35 36 37 37 35 34 34 34 35 36 37 38 38 40 42 45 48 46 42 35 26 21 18 14 10 7 5 5 5 5 7 8 8 8 9 8 8 8 7 7 7 7 7 9 12 13 13 13 18 23 24 25 26 31
34 30 28 25 25 22 24 24 23 25 24 24 26 26 24 21 25 27 23 20 20 20 22 23 24 24 24 25 27 28 28 25 24 24 27 29 31 32 31 32 34 34 36 37 38 39 38 36 34 34 35 36 36 37 38 39 40 42 46 49 47 41 33 27 21 17 13 10 7 5 5 5 6 7 7 8 8 8 8 8 9 7 8 7 8 10 14 15 14 14 19 27 30 30 30 31 34
27 27 30 28 25 21 23 24 23 25 24 25 25 26 26 24 27 28 20 18 20 20 20 20 20 21 22 22 23 26 29 26 24 25 25 27 29 30 31 31 32 34 35 37 39 40 39 37 35 35 36 36 37 38 39 39 41 43 46 50 48 40 33 28 22 16 13 10 7 5 5 4 5 7 7 8 8 8 9 9 9 8 8 8 10 15 17 15 14 19 26 31 33 35 37 34 36
24 26 36 35 27 25 24 21 23 25 24 24 26 30 31 29 29 23 16 16 20 21 20 20 19 19 21 21 22 23 25 24 24 25 25 25 27 28 29 29 31 33 35 37 39 40 40 38 37 37 37 37 38 39 39 40 42 43 47 51 48 41 35 29 22 17 12 9 8 6 5 4 5 7 8 8 8 9 9 9 9 9 9 11 14 17 16 15 16 21 27 33 36 36 36 36 40
29 28 35 38 35 33 24 20 22 24 26 23 27 36 29 23 23 17 16 17 19 20 20 21 20 20 20 20 21 21 22 22 22 23 24 24 25 26 27 28 30 31 34 36 38 39 39 39 38 38 38 38 38 39 40 40 42 43 46 51 50 42 36 30 22 17 13 10 8 6 5 4 5 7 8 8 8 9 9 10 10 10 11 13 15 16 16 16 17 23 29 35 36 37 38 38 41
35 34 34 37 41 38 24 20 24 25 27 22 30 43 31 20 19 15 17 18 18 19 19 21 20 19 19 19 20 21 21 21 22 22 22 23 23 25 26 27 29 30 32 34 36 37 39 39 38 38 38 38 39 39 40 40 42 43 46 51 51 44 37 30 22 16 13 10 8 6 4 5 5 6 8 8 8 9 9 9 10 10 11 13 15 16 16 17 20 26 29 33 40 44 39 35 39
34 37 39 37 35 36 27 22 23 24 26 23 35 48 36 23 18 15 18 18 18 19 19 19 18 17 17 17 18 19 20 20 21 21 21 22 22 23 25 25 27 30 31 32 34 36 38 39 38 38 38 38 39 39 40 41 43 44 47 52 52 46 38 30 22 15 12 10 8 6 4 4 5 6 8 8 9 9 9 10 10 10 11 13 15 16 17 18 20 25 30 37 43 38 32 36 47
32 35 40 33 27 32 30 27 24 23 26 28 35 42 34 24 17 15 18 19 19 19 19 18 17 17 16 16 17 17 18 19 19 19 20 21 22 22 23 24 26 28 31 31 33 34 37 38 38 38 38 38 39 39 40 42 43 45 47 52 53 47 40 31 21 14 11 11 8 5 4 4 4 6 7 8 9 9 10 10 10 10 12 14 16 16 17 17 21 29 35 35 32 30 37 51 61
34 38 38 30 28 32 33 33 32 28 34 36 34 36 34 26 21 19 19 19 19 19 19 18 18 18 16 15 16 16 17 18 18 18 19 19 20 21 22 24 25 27 31 32 32 34 36 38 37 38 38 38 39 39 41 42 44 46 48 53 54 49 43 34 23 15 13 11 7 5 4 4 4 6 7 8 9 10 10 10 10 11 13 16 16 16 16 17 24 29 28 24 27 38 51 64 68
45 48 46 41 38 36 32 33 39 38 41 42 37 39 35 27 24 22 19 18 18 18 17 17 17 18 18 16 16 17 17 17 17 17 18 19 18 20 22 24 25 26 28 31 32 33 35 37 37 37 37 38 39 39 41 43 44 46 49 53 55 52 46 37 26 18 15 11 7 5 4 4 4 6 7 8 9 10 10 10 10 12 15 16 15 15 16 18 21 21 20 25 36 52 61 66 68
51 50 51 54 50 42 31 33 46 43 43 47 42 40 34 27 24 19 17 16 15 16 15 14 15 16 18 17 16 16 16 17 17 17 16 18 18 19 22 23 25 25 26 29 31 32 33 35 36 36 37 37 39 40 41 43 44 45 48 53 55 54 47 39 30 22 17 12 8 6 4 3 4 5 6 8 10 10 11 11 11 14 16 16 15 14 15 16 16 18 25 34 46 61 62 56 63
51 53 54 54 52 46 31 36 50 43 43 46 37 34 28 22 21 18 16 16 15 17 16 15 14 15 17 18 17 16 17 17 16 16 16 17 19 20 22 22 23 24 25 27 29 30 32 35 36 36 37 38 38 39 40 41 43 45 47 52 55 54 47 40 35 28 22 15 10 8 5 3 3 5 6 8 10 11 11 11 12 15 16 16 14 13 13 14 16 21 31 39 51 62 56 52 69
53 57 56 50 47 42 33 43 50 40 44 44 33 33 30 24 22 20 19 19 18 17 16 16 14 14 15 17 18 16 17 17 15 16 16 17 20 21 21 22 22 24 25 26 27 29 31 34 36 36 37 39 39 39 40 41 43 44 46 52 56 55 49 42 36 30 23 19 16 12 6 3 3 4 6 8 10 11 12 11 13 15 16 15 13 12 11 13 19 24 33 45 55 58 52 61 78
56 55 55 53 46 37 38 49 47 40 49 46 36 38 35 29 27 24 24 21 17 16 14 14 14 15 16 17 18 17 16 16 15 14 14 16 22 24 24 23 24 25 25 27 27 28 29 31 33 36 38 39 40 40 40 42 43 45 48 52 57 55 48 42 36 30 25 24 21 13 5 3 3 4 6 8 10 12 12 11 14 16 16 15 12 11 10 13 21 25 35 49 57 57 57 64 70
56 53 51 50 45 40 41 42 39 42 49 44 40 46 42 36 34 27 23 19 14 16 14 12 14 16 18 19 18 17 15 14 13 14 14 15 21 25 26 25 24 25 26 27 28 28 28 29 31 34 38 40 41 42 42 43 45 48 50 54 58 55 49 43 38 33 29 25 18 10 5 3 3 4 6 9 10 12 12 12 14 16 16 14 11 9 9 12 18 25 39 51 53 56 63 59 49
45 48 49 45 43 46 43 37 38 40 42 46 48 46 37 30 30 22 17 19 17 17 16 14 15 16 16 17 18 17 14 13 14 15 16 16 18 21 23 24 24 24 25 25 27 29 29 30 31 33 36 39 41 43 44 45 46 48 50 54 59 58 54 49 44 40 34 26 18 11 8 6 4 4 6 9 11 12 13 13 15 16 15 13 11 8 8 10 16 30 42 46 47 52 63 54 33
40 43 49 45 43 49 46 43 48 44 40 48 49 44 34 21 20 18 16 20 19 19 22 19 17 17 15 15 16 16 14 15 16 16 17 18 18 19 20 22 24 25 25 24 24 26 27 29 32 34 35 37 40 42 45 46 46 47 48 52 57 58 58 54 50 45 39 32 25 20 17 11 5 4 7 9 11 13 13 14 15 16 15 12 10 8 7 10 19 31 34 35 40 45 59 58 38
43 43 50 49 46 51 51 48 55 51 40 39 41 45 44 31 23 21 21 21 17 19 23 18 15 16 17 16 16 15 14 15 17 18 18 18 18 19 20 21 23 24 24 25 25 22 22 25 28 32 36 37 39 41 44 46 47 47 48 51 56 59 60 58 53 47 42 36 32 30 23 12 5 4 7 9 12 13 13 15 16 16 15 12 9 7 6 12 19 22 19 20 26 34 53 58 41
43 47 53 52 49 50 51 52 58 54 44 41 38 40 49 47 32 21 20 22 18 16 18 16 13 13 14 15 14 14 16 17 19 19 17 17 19 18 19 19 19 19 20 24 25 23 22 24 27 31 36 39 41 41 42 44 46 48 49 52 57 60 61 59 54 47 43 38 36 34 23 10 4 4 7 9 12 13 14 15 16 16 15 11 9 6 7 12 14 13 11 12 17 30 51 51 31
43 55 60 55 54 52 50 56 59 53 52 52 44 42 53 53 32 14 16 22 21 19 19 18 16 13 13 16 16 16 16 17 16 15 14 16 18 18 19 20 20 21 22 24 26 26 27 29 32 35 38 42 44 44 44 44 46 49 51 54 57 61 62 60 55 49 45 41 40 35 20 7 4 5 7 9 12 14 14 16 17 16 14 11 8 6 7 10 10 9 8 10 13 21 35 37 26
46 55 58 55 56 57 55 58 58 53 57 58 47 44 49 44 27 15 18 22 25 26 23 21 20 15 16 18 17 17 16 15 15 14 16 16 18 21 22 21 22 25 26 28 30 32 33 33 35 38 40 44 47 48 47 46 48 50 53 55 57 61 64 61 57 52 48 46 45 37 18 5 4 5 7 9 12 14 14 16 17 16 14 11 8 6 7 8 9 9 9 10 13 14 18 28 43
47 53 52 48 48 54 58 55 51 52 55 52 44 40 39 36 27 18 20 25 29 31 25 24 26 21 19 18 16 17 17 17 18 18 19 19 20 22 20 19 24 26 26 29 32 34 36 36 36 38 41 45 49 51 51 50 51 52 54 56 58 61 64 63 59 55 50 47 47 38 18 5 4 5 7 10 12 13 15 16 17 16 14 10 7 6 7 8 10 10 11 13 13 16 22 31 55
52 56 51 44 40 44 49 46 45 50 50 43 37 34 33 34 28 19 21 25 29 31 26 28 33 27 20 17 15 16 17 18 19 20 20 20 20 20 19 21 26 25 23 28 33 35 38 39 38 39 41 45 49 51 53 53 53 55 56 58 60 63 65 65 61 56 50 48 47 37 17 6 5 6 8 11 13 14 15 17 18 16 13 10 7 7 7 9 11 10 12 14 14 23 38 53 70
49 49 49 48 45 42 42 39 39 40 38 33 33 35 33 29 24 19 19 21 24 25 22 25 31 26 19 16 14 16 17 19 18 18 20 19 20 20 20 23 25 25 24 26 31 34 37 39 39 39 41 44 49 52 55 56 56 57 58 59 61 64 66 66 63 57 50 48 47 37 18 7 5 6 8 10 13 15 15 17 18 16 13 10 7 7 8 10 11 11 13 14 16 27 44 64 81
39 42 46 51 52 52 48 39 36 37 32 27 30 37 37 31 24 19 18 17 18 19 19 21 21 19 18 14 13 15 17 18 18 18 19 19 21 21 21 22 23 25 26 25 29 34 37 39 39 40 41 45 50 54 56 58 59 59 61 62 63 65 67 66 64 58 51 49 47 36 19 8 5 6 8 10 13 14 16 18 18 16 13 9 7 7 9 10 11 11 14 16 19 29 48 69 85
40 36 38 45 49 53 52 43 42 44 38 31 31 36 39 35 27 19 16 14 12 15 17 16 14 13 14 12 12 16 17 17 18 18 19 20 21 21 21 22 22 23 25 25 28 33 38 41 42 43 44 46 51 55 58 60 61 62 63 64 65 66 68 68 65 59 53 51 47 36 20 9 6 7 8 11 13 15 18 19 18 17 12 9 8 8 9 11 12 13 15 19 22 33 58 80 88
38 32 37 44 43 43 47 47 42 44 49 45 39 39 34 28 22 16 17 15 13 14 12 11 12 11 11 12 13 16 17 17 18 19 20 21 21 22 22 22 23 24 25 26 27 31 37 42 45 47 46 48 53 58 61 62 63 64 65 66 67 68 69 70 67 60 54 53 48 35 19 9 6 7 9 12 14 17 19 19 19 16 12 9 7 7 10 11 12 14 17 20 28 49 77 91 89
38 38 45 48 43 41 50 56 42 40 54 47 33 34 31 26 24 17 16 18 16 14 12 10 12 12 11 12 14 16 17 17 19 20 21 21 21 22 22 22 22 24 25 25 27 29 34 40 44 47 49 52 57 61 63 64 65 66 67 68 69 70 71 71 68 61 56 55 48 32 18 10 7 7 9 12 15 17 19 20 19 16 12 9 7 8 10 11 14 16 18 22 32 56 85 95 94
41 44 50 51 47 43 48 56 47 44 50 39 29 38 38 35 34 23 17 20 17 14 13 11 11 12 12 13 14 16 16 17 19 21 21 22 22 22 22 21 21 23 22 23 29 32 34 38 42 46 52 55 59 64 66 67 68 69 69 70 71 72 73 73 69 63 59 57 48 32 19 11 8 7 9 13 16 18 19 20 19 16 13 9 8 8 9 12 16 16 21 26 33 57 84 95 97
45 46 49 48 48 47 45 46 46 50 54 44 39 45 40 35 36 29 22 19 13 12 13 13 13 12 11 13 15 15 15 17 20 22 22 23 23 22 22 21 21 23 22 23 31 36 37 40 43 48 56 60 62 66 70 71 72 72 72 73 74 75 76 75 71 66 62 59 50 34 19 12 8 8 10 13 16 18 20 20 19 16 13 9 8 8 10 14 15 17 23 27 39 69 93 98 99
49 51 48 44 45 47 43 39 42 51 58 54 51 49 39 30 27 23 19 14 12 14 14 13 13 12 11 14 15 14 16 18 21 23 24 23 23 22 21 22 23 25 26 26 31 39 41 43 45 51 59 65 67 69 73 75 75 74 75 76 77 78 78 77 73 68 64 60 52 35 19 12 9 8 10 13 17 19 20 21 19 16 13 10 9 9 11 14 15 19 22 26 46 81 101 100 99
44 48 46 44 44 42 41 42 43 51 58 56 55 52 38 25 19 17 16 13 12 15 14 13 12 11 12 13 14 15 16 20 23 25 24 22 22 21 21 23 24 26 30 29 29 36 43 44 45 52 62 68 70 72 74 75 74 74 75 77 79 80 80 78 75 70 66 64 56 37 19 13 10 9 11 13 17 19 20 21 19 16 13 10 9 10 11 15 17 19 23 28 47 77 97 100 99
38 41 40 37 38 41 49 51 42 42 49 48 51 55 41 26 20 18 16 13 13 14 13 13 12 11 13 14 15 16 17 22 25 25 24 22 21 21 21 24 25 26 30 31 28 30 38 44 46 52 63 70 73 73 73 73 72 73 74 77 79 82 82 80 76 72 68 69 63 40 21 15 11 9 11 13 16 19 20 21 20 17 14 10 10 10 12 16 19 20 25 33 46 69 90 98 100
Wind_Speed
12 13 15 15 13 9 5 7 3 3 3 4 5 3 2 2 4 7 6 5 2 4 5 5 5 4 4 1 2 4 4 2 0 2 2 7 12 9 4 3 5 5 8 10 11 14 16 17 16 17 17 17 17 18 18 16 15 14 13 12 12 10 8 8 9 9 9 9 9 11 12 15 16 17 18 18 17 16 16 17 17 17 17 16 16 15 16 17 17 17 18 19 20 21 21 21 22
14 14 15 14 10 4 7 10 3 2 4 5 5 3 4 3 4 7 7 4 4 7 8 7 4 3 2 1 2 0 4 5 6 8 9 9 10 7 2 3 5 6 9 10 10 14 15 15 16 17 16 16 17 17 17 16 15 14 14 13 12 11 9 8 8 8 8 8 10 12 15 16 17 17 18 17 16 15 16 18 18 17 16 15 15 16 16 17 17 18 19 20 20 20 21 21 22
16 15 14 10 5 3 6 7 3 3 4 5 2 1 4 4 3 6 7 8 10 12 10 8 4 3 4 2 3 2 3 6 9 10 9 6 8 7 1 4 5 7 9 9 11 14 14 14 16 16 15 16 16 17 16 16 15 14 14 13 12 10 9 8 7 7 8 9 11 14 16 17 17 17 17 16 15 16 17 18 17 16 15 14 16 16 17 17 18 19 19 20 20 20 21 20 20
15 14 11 6 4 4 4 3 2 4 5 5 0 2 4 3 7 8 10 12 12 12 9 9 4 5 5 3 3 1 4 8 8 8 8 9 10 7 3 5 5 7 8 9 11 13 13 13 15 14 15 15 16 16 15 15 14 14 13 12 12 10 8 8 6 7 8 10 13 15 17 17 17 16 16 15 15 16 17 16 15 15 15 16 17 17 17 18 18 19 20 21 22 22 22 21 21
10 10 8 7 6 2 2 2 3 5 4 3 1 3 3 6 9 8 10 12 11 10 9 9 3 6 5 3 4 0 7 11 9 9 9 11 11 7 5 6 6 7 8 9 11 13 13 13 14 14 14 14 15 15 15 15 14 13 13 12 11 10 8 8 7 8 10 12 14 17 18 17 16 15 15 15 16 17 16 15 14 15 16 16 17 18 18 19 20 21 23 23 24 24 24 24 25
7 5 5 5 7 4 3 3 4 4 1 2 1 3 5 8 11 10 11 11 9 8 7 7 1 5 5 5 7 3 8 9 9 10 9 10 8 6 5 5 6 7 8 9 11 12 12 12 13 13 13 14 14 14 15 14 14 13 13 12 11 10 9 9 9 10 11 14 16 17 17 17 16 15 15 15 16 16 15 15 15 15 16 17 18 19 20 21 22 23 24 25 26 26 27 28 28
3 4 7 6 5 3 3 4 6 4 1 3 1 4 7 10 13 14 11 9 6 5 6 5 3 4 2 5 8 9 10 7 8 11 10 10 7 6 6 5 5 6 7 9 11 11 10 11 12 13 14 13 14 14 14 14 14 13 12 12 11 10 9 10 10 11 13 15 17 17 17 16 15 15 15 16 16 16 15 15 15 15 16 17 19 20 21 22 22 23 25 25 26 27 28 29 30
3 7 8 5 3 3 3 5 5 1 1 1 2 4 9 13 15 13 9 8 6 6 8 7 6 3 2 7 6 11 15 7 10 13 11 10 8 6 6 5 5 6 6 8 10 9 7 9 12 13 14 14 15 15 15 14 14 13 12 12 11 10 10 11 12 13 15 17 17 17 17 16 15 15 15 16 16 16 16 15 15 16 17 18 18 20 21 22 23 24 26 26 27 28 29 30 31
5 6 4 3 3 3 4 5 5 1 2 2 3 7 12 15 15 12 8 8 8 8 11 11 9 3 2 8 5 9 15 12 14 13 11 11 8 7 6 4 3 5 7 6 8 8 6 9 12 14 15 16 16 16 16 15 14 13 13 12 11 11 11 12 13 15 16 17 17 17 17 15 15 15 16 16 16 16 16 16 16 16 17 18 19 20 21 23 24 25 26 27 28 29 29 30 31
8 7 3 2 3 4 4 6 4 2 4 5 5 8 12 14 13 12 10 7 9 8 11 14 12 8 2 6 7 10 15 14 16 14 12 12 9 8 6 3 2 5 7 5 6 8 8 10 11 14 16 17 18 17 17 16 15 14 13 12 12 12 13 14 15 16 17 17 17 17 16 15 15 15 16 16 16 16 16 16 16 17 17 18 19 21 22 23 25 25 26 27 27 28 29 30 31
7 8 2 2 4 5 5 3 1 3 4 4 5 9 11 13 12 10 11 7 10 9 10 14 10 14 9 6 7 9 15 15 16 15 14 13 10 8 6 4 3 5 6 5 4 5 8 10 12 15 17 18 19 18 18 17 17 15 14 13 13 14 15 16 17 17 17 17 17 16 15 15 15 16 17 16 16 16 16 16 16 17 18 19 20 21 23 24 25 25 26 26 27 28 29 30 31
4 4 3 2 4 5 3 2 1 4 4 4 5 10 11 13 10 8 10 7 9 9 11 15 6 9 9 8 9 11 14 16 16 16 16 14 10 8 7 6 4 5 5 4 4 3 6 10 13 16 18 19 20 20 19 18 18 17 15 14 14 15 16 17 18 18 17 17 16 16 15 15 15 16 16 16 16 16 15 16 16 17 18 20 21 22 23 24 25 25 26 26 27 28 29 30 32
5 5 2 3 4 4 4 3 1 3 2 5 6 11 12 13 10 8 10 8 9 9 11 18 8 4 7 7 9 14 15 17 17 17 19 15 11 8 6 7 6 5 5 4 4 4 5 9 13 15 17 20 21 22 21 19 19 18 17 17 16 16 18 18 18 18 17 17 16 16 15 15 15 15 15 15 15 15 15 16 17 18 19 20 21 22 23 24 24 25 26 27 28 29 29 31 32
5 6 4 3 4 4 5 4 1 1 3 4 10 14 13 11 11 11 10 8 10 10 11 18 14 5 7 7 8 15 17 16 18 19 19 15 11 10 7 8 8 6 6 4 4 3 4 7 10 13 15 18 20 21 22 20 18 18 18 18 18 18 19 19 19 18 18 17 16 15 15 15 15 15 15 14 14 15 15 16 17 18 20 21 22 22 23 24 24 25 26 27 28 29 30 31 32
5 7 4 3 4 5 3 3 1 2 1 6 13 17 13 10 11 12 11 8 7 10 9 14 16 6 4 6 3 9 18 18 18 19 18 14 12 11 9 10 10 8 6 5 5 3 3 5 7 10 13 15 17 18 20 20 19 18 18 18 19 20 20 20 20 19 18 17 16 15 15 15 15 15 15 14 14 15 16 17 17 18 20 21 21 22 23 24 25 25 26 27 28 29 31 32 33
5 5 3 2 5 6 2 3 0 1 0 6 13 16 11 8 12 11 11 9 3 5 8 11 16 12 6 4 2 1 14 20 19 18 16 13 13 13 12 12 11 10 7 6 6 4 2 3 4 7 10 13 15 16 17 18 18 19 18 19 20 20 20 20 20 19 18 17 16 15 15 15 15 15 15 15 15 16 16 17 17 18 20 21 22 23 23 24 25 26 26 27 29 30 31 32 33
4 1 3 3 6 5 1 0 1 2 3 7 12 14 9 7 11 12 10 11 8 6 9 11 15 18 15 9 5 4 12 18 18 16 15 14 15 15 15 14 13 12 10 8 8 6 4 3 4 6 8 11 14 15 16 17 18 19 19 19 20 21 21 21 21 19 19 17 16 15 15 15 15 16 16 16 16 16 17 17 19 19 21 22 23 23 24 25 25 26 27 28 29 30 31 32 33
2 1 4 4 4 2 3 5 3 2 4 7 11 13 9 6 11 12 7 10 13 12 12 14 15 18 20 14 12 13 14 16 16 16 16 16 17 17 17 16 15 15 14 13 10 9 8 6 6 8 9 10 13 15 16 17 18 19 20 20 20 20 20 21 21 20 19 18 16 16 16 15 16 16 16 16 16 17 18 19 20 21 22 23 24 24 25 25 26 26 27 28 29 30 31 32 34
3 2 4 2 3 2 4 7 6 3 2 8 10 13 11 7 11 13 7 8 13 13 14 16 18 19 20 19 17 18 19 19 19 19 19 18 18 17 16 16 18 17 17 18 15 13 12 11 10 11 11 12 14 16 17 19 20 21 22 21 21 21 21 21 21 21 20 18 17 16 16 16 16 16 16 17 17 18 19 20 21 22 23 23 24 25 25 26 26 27 27 28 29 30 32 33 35
3 2 4 1 3 2 6 9 7 6 3 5 9 11 12 9 9 11 7 8 11 12 13 15 19 23 22 22 21 21 22 22 22 23 22 21 19 18 17 16 19 19 18 19 19 18 16 15 15 15 15 15 16 17 19 20 21 21 22 23 22 21 22 21 21 21 20 19 17 16 16 16 16 16 17 17 18 19 19 20 20 21 23 23 24 25 26 27 27 28 28 29 31 32 33 33 35
1 1 3 3 6 3 6 8 6 6 6 1 7 10 10 10 7 8 7 6 8 12 18 20 22 24 22 22 23 24 24 23 23 24 25 23 22 22 20 19 18 19 18 19 21 23 20 19 19 18 18 17 18 19 20 21 21 22 22 23 22 21 21 21 21 21 21 20 18 17 16 15 16 16 17 17 18 18 19 20 20 21 22 23 24 26 27 27 28 29 30 31 31 32 32 33 35
3 1 1 4 7 4 5 7 5 4 5 4 4 7 8 9 8 10 10 7 8 10 14 19 23 22 20 19 20 22 25 26 25 25 26 26 24 24 24 22 20 19 20 23 25 27 24 23 23 22 21 20 20 20 21 22 22 22 22 23 23 22 21 21 22 22 22 21 19 17 16 16 16 16 17 18 18 18 19 19 20 21 22 23 24 26 27 27 28 29 30 30 30 31 31 33 34
2 0 1 3 5 4 5 7 5 4 3 4 2 4 7 9 8 12 16 18 20 16 10 11 15 17 17 17 17 19 22 26 28 27 27 27 26 25 25 24 22 21 24 28 28 29 29 27 26 25 24 23 22 22 23 24 24 24 23 23 22 22 21 21 21 22 22 21 20 18 17 16 16 16 17 17 18 18 18 19 19 20 21 23 24 25 27 27 28 28 29 29 30 30 31 32 34
2 2 3 3 4 4 4 6 5 4 3 5 6 4 6 8 8 11 19 25 26 25 22 18 14 14 15 17 18 19 19 22 26 28 27 27 27 27 26 26 24 23 26 30 30 31 33 31 28 27 26 26 25 25 25 26 26 25 24 23 21 20 20 19 20 21 22 21 20 19 18 16 16 16 17 17 18 18 18 19 19 20 22 23 24 25 26 26 27 27 28 28 29 29 30 32 33
1 2 3 2 2 3 3 4 4 3 4 7 8 6 8 12 12 15 24 27 25 26 26 25 21 19 20 21 22 23 22 21 23 25 26 27 27 27 26 27 26 25 27 30 30 32 34 33 31 30 29 29 28 28 27 27 27 26 24 22 21 21 19 18 19 20 21 21 21 20 18 16 16 16 17 17 17 18 18 19 19 21 22 23 24 24 25 26 26 27 27 28 28 29 30 31 32
4 4 3 4 2 3 3 3 2 2 5 5 6 8 11 15 14 17 28 27 25 27 25 25 24 23 24 25 26 25 26 26 25 25 26 27 27 28 28 27 27 27 28 30 32 34 35 34 34 33 32 31 30 30 29 28 28 26 24 22 21 21 19 18 19 19 20 21 21 20 18 16 16 17 17 17 17 18 18 19 20 20 21 22 23 23 23 24 25 27 27 27 28 28 30 30 30
4 3 3 4 3 3 2 3 3 2 6 7 7 9 12 16 9 12 25 19 15 21 24 25 24 25 26 26 27 26 27 28 28 27 27 28 28 29 29 28 28 28 28 31 34 35 36 36 36 36 35 33 32 31 30 29 28 26 24 22 20 19 19 19 18 18 20 20 20 20 19 17 17 17 17 18 18 18 18 19 19 20 21 21 22 22 22 24 25 27 26 26 27 28 29 29 29
2 3 4 4 4 5 5 5 5 3 4 6 7 11 15 16 8 17 31 21 10 12 17 21 22 24 24 24 26 26 27 27 26 27 28 29 29 29 29 29 29 28 29 33 35 36 37 38 38 37 36 34 33 31 30 30 28 25 23 22 20 19 19 19 18 18 20 21 21 20 19 18 17 17 17 18 18 18 18 19 20 20 20 21 21 21 22 24 25 25 25 25 26 27 27 28 28
4 4 4 4 5 6 9 9 8 5 2 3 3 10 11 9 13 29 35 25 16 14 14 16 18 20 21 22 24 24 25 25 25 26 27 28 28 28 29 29 29 29 30 32 34 36 38 39 38 37 36 35 34 32 31 30 27 25 23 21 20 19 19 19 18 18 20 21 22 21 19 18 17 17 17 18 18 18 18 19 20 20 20 20 20 21 23 24 24 24 24 24 25 26 27 28 27
4 4 3 4 4 5 9 11 8 6 4 3 2 6 6 5 14 26 28 22 18 18 17 17 19 20 21 22 23 24 25 24 25 27 27 26 26 26 27 27 27 28 29 30 33 36 38 39 38 37 37 36 34 33 32 31 28 25 23 22 20 20 20 19 18 18 20 21 22 21 20 18 17 17 18 18 18 19 19 19 19 19 19 19 20 21 23 23 23 23 23 24 25 26 27 27 27
3 3 3 2 3 3 7 10 7 5 4 5 4 2 8 10 11 9 12 15 13 16 19 19 20 21 23 24 24 25 24 24 25 26 26 26 26 26 25 26 26 26 27 29 32 36 37 38 38 37 37 36 35 34 33 32 29 27 24 22 21 20 20 19 18 18 19 21 21 21 20 19 18 17 18 18 19 19 19 19 19 19 19 19 20 21 22 23 22 22 23 24 24 25 26 27 26
2 2 3 2 2 2 5 8 8 4 3 8 7 3 8 11 10 3 6 12 12 17 19 19 21 22 23 24 24 25 25 24 23 24 25 25 25 25 26 26 25 24 26 29 32 35 37 37 37 37 36 36 36 35 34 32 30 28 25 23 22 21 19 18 18 18 19 21 21 20 20 20 18 17 18 19 19 19 19 19 19 19 19 19 20 21 22 22 22 22 23 22 24 25 27 26 23
2 2 4 4 3 4 1 5 7 4 1 7 7 5 8 9 13 13 11 13 15 18 19 21 22 23 24 24 24 23 23 22 23 24 24 24 24 25 25 25 25 24 25 29 32 34 36 36 36 36 36 36 36 36 34 33 30 28 26 24 22 21 20 18 17 18 19 20 21 20 20 20 19 18 18 19 19 19 19 20 20 19 20 20 20 21 21 22 22 22 22 22 24 25 25 23 21
1 1 4 5 5 6 3 3 5 4 3 5 7 7 12 14 18 24 24 22 22 20 21 23 23 24 25 25 25 24 23 23 24 24 23 22 22 21 21 21 22 23 24 27 30 32 33 34 35 35 35 35 35 35 35 33 30 28 27 25 23 22 20 18 17 18 19 20 20 20 21 20 18 18 19 19 19 20 20 20 20 20 20 20 20 21 21 22 21 20 22 23 23 22 21 20 20
4 5 4 5 6 6 7 5 2 4 5 5 7 8 15 19 19 24 29 27 25 24 24 24 24 25 26 24 25 25 25 24 22 22 22 20 18 16 17 19 21 22 21 24 26 28 30 32 33 33 33 33 34 35 34 33 30 29 27 25 24 23 21 18 17 18 19 19 20 20 21 20 18 19 19 20 19 19 20 20 20 20 19 19 20 21 21 21 20 21 22 22 21 19 18 18 20
6 6 4 6 6 6 9 6 1 3 3 6 9 10 14 19 19 19 24 25 23 24 24 23 23 23 24 23 22 23 23 22 21 21 20 17 15 15 17 19 21 20 19 21 23 25 27 30 31 31 31 32 33 34 34 33 32 30 28 26 25 24 21 19 17 17 18 19 20 21 21 19 18 20 19 19 20 19 19 20 20 19 19 20 20 21 21 20 20 21 20 20 19 17 18 18 17
6 6 5 7 6 6 10 6 1 2 1 6 9 12 15 18 19 19 22 23 18 18 19 20 22 21 20 19 19 21 20 20 19 19 17 15 17 19 19 20 20 20 19 19 21 23 26 28 30 31 30 30 32 33 34 33 32 30 28 27 25 23 21 19 17 17 17 18 21 22 20 18 19 20 19 19 19 19 19 19 19 19 19 20 20 20 20 20 20 19 19 18 17 18 20 17 14
6 6 6 7 6 7 7 2 2 2 1 6 10 14 16 15 19 20 20 16 13 14 14 15 18 19 17 17 19 20 19 19 18 15 13 15 20 21 18 18 18 19 19 18 19 22 24 26 29 31 30 31 31 32 33 33 32 30 28 27 25 23 21 19 18 18 18 19 21 21 20 19 20 20 19 19 19 18 18 19 19 19 20 20 20 20 20 19 18 18 17 17 17 19 19 14 13
5 5 5 6 5 6 4 1 3 2 2 7 11 13 15 15 18 21 18 13 13 16 13 10 12 12 12 14 16 17 17 16 11 7 9 12 13 17 15 14 16 18 20 20 21 22 24 26 28 30 31 31 32 32 32 33 31 29 28 26 23 20 19 19 18 18 19 21 22 22 20 21 21 20 19 18 18 18 18 18 19 19 20 20 20 20 19 18 17 17 16 17 18 18 16 13 13
5 5 5 6 4 4 4 3 4 3 4 10 12 11 13 14 14 15 14 10 7 8 6 6 10 11 11 12 11 10 8 7 9 10 12 14 11 10 13 14 17 21 22 23 25 25 27 28 28 29 31 32 33 32 32 32 30 29 28 26 24 21 20 19 19 19 21 23 24 24 23 22 21 19 18 18 18 18 18 18 18 19 19 19 19 19 19 18 17 16 15 17 18 17 15 14 13
5 5 4 6 5 4 6 8 9 9 8 8 8 8 9 6 6 9 5 2 2 2 2 5 9 9 9 10 9 7 6 8 10 11 12 15 14 13 15 16 18 22 24 25 27 29 31 31 30 30 30 32 33 33 33 32 32 31 30 28 26 25 23 22 21 21 22 23 25 25 24 21 19 18 17 18 18 17 17 18 18 19 19 19 19 19 18 17 16 15 15 18 18 16 14 14 13
6 4 1 3 6 7 10 11 10 8 5 2 2 6 6 3 8 10 4 3 3 3 3 4 7 5 4 5 4 3 9 13 15 16 17 18 16 16 18 18 19 22 25 28 30 31 33 34 34 33 32 32 33 34 34 34 35 35 33 30 29 28 26 24 23 20 21 22 23 23 23 21 19 18 18 18 18 18 17 18 18 19 19 19 19 18 18 16 15 15 16 18 17 14 13 13 12
6 2 1 4 7 9 11 9 6 4 5 4 2 4 6 6 9 10 6 6 6 4 2 4 4 2 4 2 7 12 15 16 17 18 18 19 18 17 18 19 21 24 27 29 31 33 34 35 36 36 35 34 33 34 34 35 37 37 35 32 30 29 27 25 22 19 19 21 21 21 22 22 19 19 19 18 18 18 18 18 18 19 19 19 18 18 17 15 15 16 17 17 16 13 11 11 11
4 2 2 7 10 11 10 7 4 5 6 9 7 4 3 6 6 10 11 8 6 10 8 9 12 9 5 10 17 17 15 16 17 18 20 20 18 17 17 18 20 24 28 29 32 34 35 36 36 36 36 35 35 35 34 35 37 38 36 34 32 30 27 24 22 19 18 19 21 23 23 23 22 20 20 19 19 18 18 18 18 18 19 18 18 17 16 15 16 17 17 16 14 11 10 11 10
4 4 5 8 12 12 8 5 4 5 6 8 5 3 1 5 4 10 13 7 7 10 10 10 14 18 16 21 25 23 21 21 20 21 21 20 18 17 18 19 22 25 28 30 32 34 34 35 36 36 36 36 36 36 35 35 36 37 36 35 33 31 27 23 21 20 20 20 22 24 24 25 24 22 21 20 20 19 18 18 18 18 18 18 17 16 15 15 16 16 15 14 12 11 11 11 10
6 8 8 10 11 9 4 2 4 4 3 5 5 4 1 6 5 8 8 5 7 7 8 9 15 19 22 26 27 25 24 23 21 21 19 18 19 19 21 25 27 26 28 30 32 33 34 35 35 35 35 36 37 37 36 35 36 37 37 36 34 32 29 25 24 23 21 21 22 23 25 25 24 23 22 21 20 19 19 17 17 18 18 18 17 16 15 15 15 15 14 12 11 10 10 10 10
7 8 8 9 8 2 3 3 2 2 2 4 5 3 3 6 5 5 5 4 5 6 7 9 13 16 20 24 23 21 21 19 18 19 18 19 20 22 28 31 28 27 30 31 31 32 34 34 34 34 34 35 37 38 37 36 36 37 37 37 36 33 31 28 26 24 22 21 22 23 25 25 24 24 23 22 21 20 19 17 17 18 18 18 17 16 15 15 15 14 13 12 11 10 10 10 10
3 4 5 6 6 2 3 1 2 2 2 3 3 6 6 6 6 6 7 4 7 7 5 5 8 11 16 20 21 18 17 15 16 18 20 22 24 27 33 32 28 30 33 32 32 32 32 33 33 33 33 34 37 38 38 38 37 37 37 37 37 34 32 30 28 25 22 21 21 22 24 25 25 24 23 22 21 20 19 17 17 17 17 18 17 15 14 14 14 13 12 12 12 11 11 11 11
2 4 4 5 5 3 4 3 1 3 5 4 3 7 5 6 7 9 7 3 8 7 4 4 4 7 12 16 17 16 14 15 18 21 23 25 27 30 34 33 31 33 34 33 33 32 32 32 32 32 33 33 35 38 38 38 38 38 37 37 37 35 33 31 28 25 22 21 21 22 24 25 25 24 24 22 21 20 19 17 17 17 17 17 16 15 14 13 13 12 12 12 12 12 12 13 13
5 5 4 3 3 4 5 4 3 5 7 8 6 5 5 7 5 9 9 1 8 8 8 8 7 5 9 13 15 14 15 19 23 24 26 27 27 30 32 33 34 35 35 34 33 33 32 32 31 31 31 32 34 37 38 38 38 38 37 37 37 36 34 32 29 25 22 21 21 22 23 24 24 24 23 22 21 20 18 17 17 17 17 16 15 14 13 13 12 12 11 12 12 13 13 13 14
5 3 2 2 1 2 3 3 3 5 7 10 8 3 4 5 4 11 9 6 9 7 7 8 8 7 9 12 12 13 16 20 24 25 27 27 28 30 32 33 35 35 36 35 33 32 31 31 30 30 31 32 34 36 37 38 39 38 37 37 37 37 35 33 29 25 23 22 22 22 23 24 24 24 24 22 21 20 18 17 17 16 16 16 15 14 13 12 12 11 11 12 13 13 14 14 15
3 2 2 1 1 2 2 4 5 6 7 7 5 4 5 4 7 11 4 6 3 8 11 11 12 12 14 13 9 11 16 19 23 26 27 28 28 30 31 33 34 34 36 36 34 32 30 30 29 30 31 31 32 35 37 38 38 38 37 37 37 37 36 33 30 26 23 22 22 22 23 23 24 24 24 23 21 20 19 17 16 16 16 15 15 13 13 12 12 11 11 12 13 13 14 15 16
2 3 3 3 3 5 1 6 6 5 5 4 4 7 6 4 6 7 4 5 8 10 10 10 11 14 15 13 8 11 15 19 24 26 26 26 27 29 31 32 32 32 34 36 36 33 29 28 29 30 32 32 31 33 35 37 38 38 38 37 37 37 36 33 30 26 23 22 21 22 23 23 24 25 25 23 21 20 19 17 16 16 16 15 14 13 13 12 12 12 11 12 14 14 14 15 16
0 2 4 5 1 3 2 3 4 4 4 4 5 10 9 5 3 5 6 10 9 9 9 8 9 13 13 10 7 11 17 21 23 25 26 26 28 31 31 29 29 30 31 32 33 33 30 28 30 31 32 32 31 31 33 35 38 38 38 37 37 37 36 33 29 26 23 22 22 23 23 24 24 25 25 23 22 20 19 17 16 16 16 15 14 13 13 12 12 12 11 13 14 14 15 16 16
3 3 5 2 1 2 2 3 4 5 5 5 6 11 10 4 4 5 7 9 10 11 12 9 8 12 12 7 8 14 19 21 23 25 25 26 29 32 29 27 27 29 30 29 28 30 32 31 33 33 31 31 32 31 31 34 37 38 38 37 36 36 36 33 30 27 24 22 22 22 23 24 24 25 25 23 22 21 19 17 16 16 16 15 14 14 13 13 13 12 12 13 14 14 15 16 16
2 4 4 0 1 4 4 2 3 3 4 5 6 9 8 4 4 7 9 10 10 10 11 9 8 11 11 8 10 16 20 22 23 24 25 27 29 29 27 26 28 30 31 30 26 27 31 33 35 35 31 29 29 30 31 33 35 36 36 36 36 36 35 33 30 27 24 22 22 22 23 24 24 25 25 24 22 21 19 17 16 16 16 15 14 14 13 13 13 13 13 14 14 14 15 16 17
2 2 3 2 1 3 3 2 3 3 3 4 5 7 9 6 5 8 10 10 9 9 10 9 11 15 12 10 13 17 20 22 23 24 26 27 28 28 27 27 28 30 31 30 28 26 29 32 34 34 32 29 26 27 30 32 34 35 35 36 36 36 35 33 31 28 25 23 22 23 23 24 25 25 25 24 23 21 19 17 16 16 16 15 14 14 14 14 14 14 14 14 15 15 17 18 19
4 3 4 4 3 2 3 4 4 2 2 4 4 6 10 8 5 7 9 6 7 10 11 11 18 21 14 11 14 17 19 21 22 26 27 26 26 27 28 28 29 31 30 30 30 29 29 31 32 33 32 30 26 25 27 30 32 33 34 34 35 35 35 33 31 28 25 24 24 24 24 24 25 26 25 24 23 21 19 17 16 16 16 15 14 14 14 15 15 15 15 15 16 17 18 19 20
Wind_Direction
132 135 130 127 125 119 185 208 230 215 216 261 244 227 161 125 127 133 131 144 145 97 109 99 101 130 122 72 353 39 56 23 105 157 141 146 160 171 196 271 296 302 308 319 323 313 330 343 340 346 351 350 352 355 357 359 360 0 360 358 3 13 14 12 13 10 8 8 6 358 349 339 333 327 322 318 318 322 323 319 318 315 312 313 322 333 339 341 338 330 326 325 328 334 333 333 331
138 136 134 133 128 124 217 201 235 244 211 241 242 249 136 139 169 142 139 137 94 114 128 121 119 152 159 343 291 247 71 81 105 117 125 145 172 172 189 281 301 308 312 321 314 308 330 343 341 348 350 348 349 351 354 357 358 358 359 359 2 8 12 12 12 10 8 4 356 343 334 329 323 319 315 314 315 316 316 313 312 312 309 319 337 343 342 340 336 334 334 334 335 334 332 332 331
142 138 144 145 146 229 240 189 244 260 232 245 246 25 154 170 147 109 108 103 101 119 127 131 136 163 170 224 227 218 128 120 111 119 131 141 173 174 220 288 297 308 313 318 307 315 339 346 343 349 348 344 344 347 350 354 356 356 357 358 1 5 9 11 11 7 2 350 341 331 324 320 316 314 313 313 313 312 311 311 313 314 319 335 343 342 340 339 336 336 335 334 331 326 323 321 323
145 139 158 186 207 227 248 187 245 258 262 267 315 135 188 146 105 82 91 105 118 128 130 141 138 166 179 229 211 256 159 154 131 130 139 158 186 201 258 281 289 305 313 317 310 328 351 347 345 348 343 341 341 344 348 353 355 355 356 357 0 5 5 7 9 358 345 337 328 321 316 315 313 313 312 313 311 310 310 313 320 322 328 338 339 338 338 337 334 331 327 325 321 317 317 315 314
151 143 166 216 243 246 274 222 232 244 261 287 305 177 166 106 106 94 107 116 131 136 145 158 135 175 208 262 204 185 152 160 155 144 147 175 201 223 254 274 296 310 315 323 318 337 357 349 346 345 340 341 341 344 349 353 355 354 356 358 0 2 360 358 355 343 332 326 319 314 313 313 312 312 312 312 310 310 313 319 324 326 329 332 331 331 329 327 325 320 317 317 316 316 316 314 312
149 153 174 237 269 302 302 243 241 237 249 327 338 141 117 106 117 116 122 122 136 143 156 176 133 167 221 248 215 200 161 166 168 159 164 192 216 234 251 273 295 308 322 332 328 340 358 351 345 343 341 342 344 348 351 354 355 354 356 357 359 357 352 348 341 332 324 317 313 312 312 312 311 312 312 311 311 313 318 322 326 328 328 327 324 323 321 319 318 316 316 317 318 318 316 314 313
166 219 202 242 261 248 270 251 256 254 2 339 16 120 113 115 127 128 133 131 144 167 178 198 167 158 213 204 210 218 200 174 172 185 188 201 223 242 259 268 284 294 323 330 326 342 357 352 349 346 347 347 350 353 354 355 355 355 357 357 356 351 343 338 332 324 318 313 311 311 311 311 311 312 313 312 314 317 320 323 326 328 327 326 323 321 320 319 319 319 320 321 321 320 318 317 316
260 249 214 232 244 197 242 258 261 287 48 319 30 100 119 130 138 138 154 156 163 184 188 196 185 204 234 180 197 213 209 189 187 204 204 213 226 237 259 272 296 300 323 323 317 342 1 355 357 355 355 354 356 358 357 357 356 357 357 356 351 344 336 331 326 319 314 311 311 311 311 311 313 314 315 315 317 319 321 324 327 328 328 326 324 323 323 323 324 324 325 325 324 323 321 321 319
240 244 246 236 256 228 221 250 250 119 134 169 69 98 124 140 149 151 168 169 168 184 189 187 190 205 155 183 190 191 201 203 207 215 212 223 233 235 255 272 291 287 308 317 312 338 8 8 4 1 1 1 3 1 360 359 358 358 356 353 345 338 331 325 320 315 312 311 312 311 312 313 316 316 316 317 318 320 321 326 329 330 330 328 327 327 327 327 328 328 328 327 326 326 325 324 322
230 218 278 273 260 260 232 241 237 117 118 136 108 124 136 150 159 161 174 181 167 181 193 181 194 213 178 191 186 189 207 212 217 222 222 229 236 237 246 257 236 252 288 308 312 334 3 17 12 7 8 8 7 3 2 359 357 356 353 348 339 333 325 321 316 313 312 312 313 312 314 316 317 316 316 318 319 322 324 328 331 333 333 332 332 331 331 331 331 331 330 330 329 328 327 326 325
241 204 233 292 259 260 253 249 212 99 111 127 128 148 153 160 168 169 180 190 164 174 190 171 196 226 239 252 212 213 220 219 224 223 226 233 234 242 249 255 249 251 282 302 304 329 357 14 15 10 13 12 11 9 4 358 356 353 348 343 334 328 321 317 313 312 313 312 313 313 315 316 316 315 316 319 321 323 327 331 333 335 336 335 335 334 334 334 333 333 332 331 331 330 329 328 328
266 218 198 242 256 260 276 312 44 103 126 153 151 162 166 166 174 177 181 199 176 178 191 174 186 221 223 253 228 218 217 221 228 224 227 233 234 244 255 263 269 262 274 286 292 337 360 7 13 11 10 11 12 12 9 0 355 349 342 337 329 323 317 315 313 313 313 312 312 313 315 315 315 315 318 320 321 325 329 333 336 337 338 337 337 337 337 336 335 335 334 333 333 332 331 330 330
287 298 259 239 255 272 295 317 48 104 172 192 168 166 171 172 184 188 182 204 194 187 200 190 191 205 219 251 208 197 212 226 230 226 229 234 238 239 240 255 268 264 257 267 293 343 9 4 9 10 6 7 9 10 11 5 355 348 339 331 324 319 315 313 313 313 312 312 312 313 315 315 316 317 319 319 320 327 332 336 338 340 340 339 339 339 338 337 336 336 335 335 334 333 331 331 331
301 318 318 273 270 281 283 283 129 176 246 167 152 160 173 182 189 192 185 203 210 211 215 201 204 222 248 247 188 195 215 226 225 224 229 232 238 243 237 244 259 259 252 260 276 315 8 7 4 7 5 4 6 4 6 6 357 349 339 328 321 315 314 312 312 313 312 312 312 314 315 315 317 318 317 317 324 331 335 339 341 341 340 340 340 339 338 337 337 337 336 335 333 333 332 332 331
307 326 307 268 282 279 255 245 259 260 261 121 142 156 171 190 189 196 201 210 219 209 198 191 200 206 235 222 182 216 216 210 213 219 226 230 234 244 246 245 253 250 251 257 257 292 349 0 357 0 2 1 2 360 359 2 357 350 341 328 320 314 312 311 311 312 311 311 312 313 314 315 316 316 318 322 331 335 337 340 340 338 338 339 339 338 338 337 338 337 335 334 334 333 332 331 330
306 329 277 257 269 263 214 198 150 336 44 110 142 154 168 192 190 199 210 223 231 183 182 186 198 207 225 216 66 135 186 191 203 216 224 229 235 243 247 247 249 248 249 251 258 280 313 320 333 345 353 353 353 353 351 353 353 349 344 333 323 316 312 310 309 310 309 309 309 311 312 313 315 318 324 331 335 335 336 337 334 334 336 337 337 337 338 338 338 336 335 336 334 333 331 330 328
303 315 250 260 255 253 14 226 129 133 109 115 151 160 170 187 190 205 220 234 243 223 216 212 210 219 234 244 252 204 173 186 201 216 227 233 239 244 246 247 245 250 253 247 254 261 259 277 301 321 335 338 339 341 341 344 345 345 343 338 328 320 314 310 308 307 306 306 307 309 311 314 320 325 331 334 333 332 332 330 330 333 336 336 336 337 338 337 336 335 336 336 334 332 330 328 327
306 255 243 253 275 291 356 1 55 146 136 142 175 173 183 185 180 201 225 235 237 244 241 231 228 231 236 243 254 248 220 210 217 227 236 239 243 246 249 253 251 252 258 253 248 251 260 277 285 300 314 320 324 327 330 333 336 338 339 338 332 324 317 311 308 306 304 305 306 308 313 318 324 330 331 329 329 329 328 329 331 334 335 335 336 336 336 335 334 335 335 333 332 330 328 327 327
246 249 269 276 345 359 1 11 41 11 102 148 180 179 195 197 175 190 207 221 220 237 245 236 238 238 237 235 240 250 245 236 236 239 242 242 242 243 246 253 255 252 254 254 251 251 259 273 278 288 299 306 311 315 319 322 328 331 334 336 333 328 321 315 309 306 305 304 306 308 313 319 325 328 325 325 326 327 328 330 331 331 333 334 333 333 333 333 334 335 333 331 330 329 329 328 328
224 230 279 336 348 4 32 25 38 6 12 150 175 180 207 210 177 181 196 231 219 223 231 227 234 235 236 234 230 240 249 248 244 243 244 243 239 237 238 241 251 256 254 251 254 256 259 270 276 283 290 296 301 305 310 313 319 324 328 331 332 329 324 318 311 307 305 304 305 307 311 318 322 323 322 325 326 327 328 328 329 329 331 331 330 330 331 333 333 332 331 331 331 330 329 328 328
274 258 269 351 340 331 43 27 28 0 340 305 172 173 217 221 199 197 204 242 235 232 231 225 230 234 236 235 231 233 239 245 243 242 242 242 239 236 236 235 241 255 258 247 248 257 261 269 274 279 284 287 292 296 301 305 311 317 321 326 329 328 324 320 313 309 306 305 306 306 311 316 319 321 323 324 325 326 327 327 328 328 329 329 328 328 330 332 332 331 331 331 331 330 328 327 327
275 272 272 356 350 345 32 21 12 342 325 314 187 177 223 225 221 229 224 236 236 235 238 234 234 236 239 237 234 234 233 235 237 239 241 242 243 240 239 239 236 241 248 243 245 255 262 267 272 277 280 282 286 289 294 299 305 311 316 321 325 326 325 320 314 310 307 307 308 308 311 314 318 321 322 322 322 324 325 326 327 327 328 327 327 328 330 331 331 331 331 330 329 327 325 326 326
256 256 21 5 356 356 6 9 3 347 316 295 279 219 237 233 235 240 236 241 243 242 249 255 245 236 239 241 239 239 235 233 234 238 243 246 248 247 243 241 238 236 242 244 246 255 261 266 270 275 278 280 282 285 290 295 300 305 311 316 321 323 323 318 313 310 307 307 307 306 308 312 315 317 318 318 320 322 324 325 326 326 325 326 327 328 329 330 331 330 329 327 325 324 324 325 324
240 271 32 20 352 2 359 2 2 5 323 301 330 310 261 251 254 255 246 247 250 252 256 259 258 244 236 237 237 239 240 237 239 242 246 250 253 255 251 246 243 239 244 248 247 253 261 267 270 272 275 278 280 283 286 291 296 301 306 312 315 318 319 314 309 307 304 303 302 302 304 308 310 312 314 315 317 321 324 324 324 324 325 327 328 328 328 328 329 328 326 324 323 323 323 323 323
323 327 16 338 328 2 357 4 1 358 309 306 324 300 269 264 269 269 258 256 257 256 258 256 254 253 246 241 240 239 240 240 243 247 247 250 254 256 255 250 245 240 244 250 250 252 261 267 271 272 273 276 278 280 283 287 292 297 302 308 311 313 316 311 304 302 300 297 297 298 300 304 306 308 312 313 317 321 323 322 322 323 325 326 327 327 327 325 325 325 322 322 323 323 322 322 322
5 338 331 318 326 351 346 347 349 339 299 304 308 278 270 271 272 272 262 259 261 257 254 253 250 250 249 248 249 246 244 242 243 246 248 250 251 252 252 251 247 243 243 248 251 254 260 267 271 273 273 274 276 278 281 284 289 294 299 305 308 310 312 308 301 298 295 294 295 295 299 302 305 307 311 314 317 320 320 320 321 323 324 325 325 325 325 323 321 321 322 324 323 322 322 322 320
333 309 311 323 316 308 302 295 291 289 283 273 275 278 274 272 270 269 265 261 263 258 248 245 245 245 246 247 249 250 249 249 248 248 250 250 249 249 251 250 248 247 244 245 248 253 260 267 271 272 272 273 273 275 278 282 286 291 297 301 304 306 306 304 299 295 291 293 293 294 299 301 303 307 310 313 315 316 317 318 320 321 322 323 324 323 323 320 318 322 324 323 320 320 320 321 319
289 262 281 262 248 267 238 245 250 235 272 246 255 277 268 268 255 251 263 264 249 244 241 240 240 241 244 244 246 249 251 254 255 252 250 248 247 247 249 250 249 249 245 244 248 252 259 266 269 271 271 272 273 274 276 280 284 289 294 299 302 302 302 301 297 292 290 291 291 293 298 298 300 304 308 311 311 314 315 316 319 320 322 323 323 322 319 319 321 323 322 319 318 318 316 317 316
268 259 283 247 221 249 230 224 222 207 218 179 278 290 263 238 228 245 259 264 247 234 236 241 242 242 243 243 243 245 249 253 254 253 253 251 250 249 250 253 253 250 247 247 250 252 258 264 268 269 270 272 272 273 276 278 281 286 292 295 299 299 298 298 294 289 287 288 290 292 294 293 296 301 304 308 309 312 314 316 318 320 322 322 321 318 317 321 323 322 320 318 316 314 314 315 315
270 240 264 273 269 258 212 209 212 195 200 166 36 304 275 245 243 254 260 255 241 230 232 241 244 245 244 244 244 245 247 248 249 253 257 257 258 256 255 256 254 252 251 250 249 251 256 261 267 269 270 272 272 273 275 277 279 283 287 291 293 294 295 295 290 285 284 285 288 290 290 290 293 298 302 306 308 311 314 316 318 320 321 320 318 318 319 322 323 323 320 316 313 314 315 314 312
267 249 248 248 290 282 176 184 193 174 194 171 120 267 276 289 286 275 245 234 224 221 229 237 241 243 243 242 241 244 246 246 249 253 257 260 263 262 260 259 253 251 252 249 248 251 255 261 266 269 271 273 272 273 274 276 279 281 284 286 287 289 292 292 286 282 281 283 286 287 288 290 293 298 302 305 308 310 312 315 317 318 319 319 319 320 321 323 324 322 318 316 314 313 312 312 313
232 276 299 249 245 265 172 176 187 182 194 164 146 268 275 278 290 311 209 219 217 220 229 235 241 245 243 243 240 240 244 247 250 253 256 258 259 260 260 261 257 250 248 248 250 253 255 260 265 269 271 272 273 273 274 274 276 279 280 282 284 286 289 289 284 280 280 282 284 285 286 289 293 297 301 304 306 308 311 313 315 316 318 320 322 323 324 325 324 321 318 316 311 309 311 313 316
203 202 292 298 302 311 237 190 208 219 222 176 180 260 282 274 281 282 254 232 228 228 235 240 247 251 248 246 243 241 243 247 251 254 256 256 258 260 258 258 258 252 246 248 252 255 257 261 266 269 271 272 273 273 272 271 272 274 277 277 279 282 286 288 282 277 278 280 282 282 283 287 292 295 298 301 304 306 309 312 314 316 319 322 322 324 325 325 324 319 315 312 309 311 315 315 313
326 268 301 310 323 329 311 253 239 216 189 209 210 237 265 270 275 277 269 256 246 241 243 245 246 250 251 248 243 243 245 248 253 256 258 260 261 259 253 252 255 253 247 248 255 259 262 265 269 271 272 271 272 272 270 269 269 270 272 274 276 279 283 285 281 276 275 277 278 278 280 285 290 292 295 299 301 304 308 311 314 317 320 322 322 323 325 324 322 315 311 313 315 317 317 313 309
323 316 322 320 322 320 296 291 247 195 192 231 245 250 266 273 273 272 269 262 254 250 252 253 248 244 247 248 243 241 244 247 252 259 263 263 258 253 250 252 255 258 257 255 260 266 266 269 272 272 272 272 271 270 269 266 266 266 268 271 274 277 280 281 278 275 275 275 274 274 278 284 286 287 291 296 299 303 307 311 314 317 319 321 322 323 324 322 317 314 315 318 319 317 312 306 305
310 303 304 292 297 298 287 291 195 213 241 249 258 263 268 277 277 271 272 270 261 259 262 265 262 250 243 245 248 246 246 248 253 261 263 258 252 251 252 255 259 265 268 267 268 274 274 274 276 275 274 274 271 269 268 265 264 263 264 267 270 275 278 279 277 274 274 274 271 271 277 281 280 284 289 293 297 301 306 310 313 316 319 321 321 322 321 319 317 318 319 319 317 310 303 304 304
300 298 296 282 285 283 286 296 178 167 267 257 262 274 274 278 281 277 279 279 267 262 265 265 267 261 246 242 251 252 250 253 257 261 262 260 258 256 255 257 262 267 272 277 278 281 282 278 278 280 277 274 273 271 269 267 265 264 264 265 268 272 274 275 277 276 273 271 269 271 276 276 275 280 285 290 294 299 304 309 312 316 319 319 319 320 319 319 319 320 318 315 311 301 303 312 307
293 293 291 290 289 278 292 330 214 161 152 269 272 279 279 278 281 282 284 284 268 260 261 262 267 267 251 242 252 255 252 255 256 257 268 272 260 251 253 260 267 273 275 281 287 289 288 283 281 282 279 276 274 274 271 269 267 264 265 265 266 270 272 273 275 277 274 269 268 272 274 273 274 277 282 287 292 297 302 307 310 315 317 317 318 319 319 319 319 317 314 308 301 299 305 311 302
286 285 281 285 290 290 309 98 219 174 149 279 284 283 284 281 279 282 281 273 261 257 258 271 287 288 268 251 252 251 247 253 266 290 318 317 274 245 251 275 288 290 285 284 289 293 292 289 285 282 280 277 274 273 271 270 266 262 262 262 261 262 264 266 270 272 270 268 267 270 271 270 273 275 278 284 289 294 300 305 309 313 316 317 317 318 318 319 315 312 307 299 296 299 303 301 297
267 267 264 270 317 342 304 281 288 265 236 274 288 289 287 281 277 280 272 260 260 258 258 286 297 295 283 272 272 270 269 296 330 339 343 352 339 280 274 296 308 306 300 293 291 292 292 293 291 285 280 277 274 271 269 267 262 257 255 255 254 253 253 256 259 262 263 265 267 269 270 269 270 271 275 281 286 291 298 303 307 312 315 316 316 317 319 316 311 306 300 292 293 297 297 297 300
288 264 251 268 311 319 272 296 312 292 270 270 294 302 282 278 309 308 293 278 315 255 261 299 291 291 295 283 276 294 328 350 354 356 357 356 350 327 308 304 306 308 308 305 300 295 293 293 292 288 283 277 274 270 266 262 258 254 250 247 247 248 249 252 255 260 263 264 266 269 271 269 268 269 274 279 284 291 297 300 306 310 313 315 316 317 316 313 308 302 294 290 292 293 291 297 306
310 283 290 302 306 295 282 306 319 310 303 255 9 324 288 2 347 315 328 356 304 179 178 280 273 269 317 300 271 347 21 30 27 20 12 357 342 331 321 311 306 305 306 306 304 301 297 293 290 287 283 278 274 270 265 261 257 256 253 248 247 248 249 253 257 264 268 268 268 269 270 269 270 271 274 278 283 288 294 298 303 309 312 315 317 316 315 311 305 296 291 289 290 288 285 291 303
311 275 355 311 294 290 289 308 319 304 301 283 302 285 283 339 329 312 340 330 328 65 79 338 340 195 171 113 41 38 34 34 29 17 5 349 334 325 322 318 313 307 303 299 297 298 297 295 291 286 282 277 274 271 267 263 259 257 255 251 250 251 251 253 257 261 266 271 270 266 267 269 271 272 273 275 279 284 291 295 301 307 312 315 315 315 313 307 299 295 293 291 288 284 278 281 291
290 274 323 299 289 286 288 305 296 277 301 297 275 214 260 305 304 329 337 318 359 37 19 4 15 20 77 69 47 40 34 28 18 5 355 345 336 329 325 322 318 313 308 300 295 296 296 293 291 287 282 276 272 270 268 267 263 258 255 251 249 250 249 250 254 256 258 262 263 262 265 267 268 269 269 271 276 282 287 292 298 305 310 314 315 315 311 303 299 298 295 291 286 279 271 272 277
265 294 307 287 279 278 284 300 284 286 312 307 290 143 226 278 294 337 330 325 17 24 16 12 0 2 30 43 35 28 21 13 5 357 350 344 339 333 328 324 321 320 317 310 302 298 295 291 289 286 282 276 270 268 267 268 265 260 254 250 248 247 245 243 247 250 252 256 258 260 261 262 264 266 266 268 273 278 283 288 296 304 310 314 315 313 309 304 301 300 295 290 283 271 263 264 269
286 310 299 281 273 267 259 262 286 304 293 300 339 65 305 283 305 334 328 351 11 358 14 18 352 2 31 33 22 15 7 358 353 350 345 339 335 333 333 329 325 327 326 318 307 300 295 292 290 287 284 278 272 268 267 267 265 260 253 249 246 244 240 237 239 246 252 258 260 259 258 258 260 263 263 266 269 274 281 288 296 304 311 314 314 313 310 305 302 301 297 289 278 268 257 254 261
320 326 300 291 289 265 139 189 242 339 301 294 341 10 326 307 310 327 328 353 37 24 18 11 349 3 30 24 10 5 358 349 347 345 340 339 339 339 337 330 327 332 333 324 312 303 298 295 293 291 288 281 274 269 267 267 265 261 254 249 246 244 241 238 239 246 253 259 262 260 258 256 257 259 261 264 268 273 279 286 295 303 310 313 313 313 311 308 303 299 293 284 273 263 253 251 254
346 314 295 316 321 43 88 178 170 15 310 253 311 340 328 302 294 310 322 3 75 66 30 11 352 3 18 8 357 352 346 343 346 346 344 343 342 341 337 331 329 331 334 331 320 309 299 295 294 294 291 284 278 272 268 268 265 260 255 249 245 243 242 241 243 248 254 260 263 260 255 252 253 255 257 261 266 272 278 285 294 302 308 311 312 313 311 306 300 294 285 277 268 257 250 252 255
339 304 324 347 336 4 357 333 24 330 293 255 310 355 331 272 275 298 314 43 93 94 80 70 42 14 8 356 347 346 345 351 355 352 348 343 339 338 335 332 328 327 330 332 324 313 303 296 294 294 294 289 281 274 270 269 266 262 256 250 245 242 242 244 245 249 256 261 262 259 255 251 251 253 255 259 264 271 278 285 294 301 307 310 310 311 309 301 296 289 279 270 262 253 248 249 255
329 328 0 2 338 360 337 324 339 306 292 294 316 355 312 273 273 313 322 108 131 132 126 97 69 37 2 344 341 349 359 2 358 350 342 336 333 332 331 329 326 324 326 329 326 318 308 300 295 296 298 294 284 277 272 270 267 263 257 251 247 243 242 244 245 249 256 261 261 258 256 254 252 253 254 258 263 270 277 283 291 298 303 305 306 307 304 300 294 285 275 267 259 251 246 251 258
302 300 6 350 331 5 302 306 329 299 294 306 314 317 281 273 300 326 319 187 156 122 107 73 37 16 347 333 336 355 5 2 352 342 334 329 328 328 329 329 326 325 325 326 327 323 314 305 299 298 301 299 289 280 275 272 268 264 259 253 248 244 243 244 245 247 253 259 261 257 254 253 252 251 253 257 263 268 273 278 286 293 298 301 303 306 303 299 292 282 271 263 256 250 248 251 258
292 315 23 16 151 145 249 266 263 271 284 293 300 270 248 265 302 310 294 191 211 11 26 22 5 359 347 329 339 8 7 357 346 337 330 327 327 328 327 326 325 325 325 325 324 322 318 310 303 301 302 302 293 282 277 274 269 265 260 255 249 245 243 243 243 246 251 256 258 256 254 252 249 249 251 254 260 264 269 275 282 289 295 299 303 305 302 296 289 280 270 259 253 249 250 254 259
319 349 348 286 192 144 211 281 264 267 282 280 291 284 282 325 307 286 304 313 312 339 1 359 350 351 339 322 344 14 1 350 341 332 325 324 326 325 324 326 329 328 326 325 322 318 316 312 308 306 304 300 292 283 279 274 268 264 260 256 251 246 244 244 244 246 251 255 255 254 253 251 248 247 249 252 256 260 265 271 279 287 293 298 302 303 299 293 286 279 269 259 253 248 249 254 259
341 330 314 295 275 111 129 268 286 298 290 288 295 289 294 325 300 281 317 320 318 329 333 332 339 337 321 313 358 8 351 343 337 329 325 326 327 325 323 326 330 328 325 328 326 317 313 311 310 310 305 299 293 284 278 272 266 263 260 257 252 248 245 244 244 245 249 253 253 252 251 250 248 247 248 250 254 257 262 268 276 285 290 295 299 299 296 291 283 277 269 259 255 253 252 255 260
195 281 313 325 358 331 271 261 303 307 288 284 290 290 291 276 256 295 313 310 322 331 321 314 324 326 320 332 6 354 342 337 331 326 323 325 326 323 322 325 328 328 328 333 333 321 314 312 313 314 308 299 293 285 276 270 265 261 259 258 255 250 246 243 243 244 248 253 254 252 251 250 248 246 246 248 251 255 259 266 274 282 287 291 295 295 292 287 282 276 268 260 257 254 255 258 261
257 316 320 18 155 250 261 300 302 274 270 276 287 292 288 261 269 304 309 311 320 316 306 304 312 321 331 353 353 343 339 333 327 323 322 326 327 323 325 328 329 330 331 337 339 328 318 315 315 318 315 305 294 284 276 269 264 261 258 257 255 250 246 242 242 245 249 253 254 252 250 250 248 246 245 246 249 252 256 264 272 279 285 288 290 291 288 284 280 275 268 260 255 251 252 256 261
289 331 289 271 292 265 281 299 231 228 262 276 288 285 276 278 302 304 299 304 312 307 307 310 307 311 322 342 342 337 333 328 325 326 327 328 328 326 328 330 329 330 333 338 340 333 322 317 317 320 320 315 303 288 277 270 264 261 260 258 256 251 246 241 241 245 249 253 254 251 249 249 248 245 244 244 247 251 255 262 270 276 283 285 285 286 284 280 277 273 269 261 253 249 250 256 261
214 233 254 259 275 290 307 291 258 260 262 258 274 278 276 282 289 280 279 291 311 309 308 306 302 302 312 334 334 329 326 323 325 329 328 327 327 327 328 329 327 329 335 340 341 338 330 323 322 322 321 321 313 295 280 272 266 264 262 260 257 252 246 242 241 244 248 252 254 252 249 249 248 245 244 243 245 249 254 259 267 274 278 281 282 281 279 276 274 272 268 262 256 252 254 259 263